Shawnee, OK

9:14 AM CDT on May 26, 2017 (GMT -0500)
Shawnee Municipal

Weather History for KSNL - March, 2013

Change the Weather History Date:

Monday, March 4, 2013

  Actual Average (KTIK) Record (KTIK)
Temperature  
Mean Temperature 60 °F -  
Max Temperature 73 °F 54 °F 76 °F (2009)
Min Temperature 46 °F 31 °F 12 °F (2002)
Degree Days  
Heating Degree Days 6    
Growing Degree Days 10 (Base 50)    
Moisture  
Dew Point 42 °F    
Average Humidity 52    
Maximum Humidity 82    
Minimum Humidity 36    
Precipitation  
Precipitation 0.00 in - - ()
Sea Level Pressure  
Sea Level Pressure 29.67 in    
Wind  
Wind Speed 15 mph (West)    
Max Wind Speed 30 mph    
Max Gust Speed 39 mph    
Visibility 10 miles    
Events      
Averages and records for this station are not official NWS values.
T = Trace of Precipitation, MM = Missing Value Source: NWS Daily Summary

Daily Weather History Graph

Daily Weather History Graph

Search for Another Location

Airport or City:

Trip Planner

Search our weather history database for the weather conditions in past years. The results will help you decide how hot, cold, wet, or windy it might be!

Date:

Astronomy

Mar. 04, 2013 Rise Set
Actual Time 6:53 AM CST 6:26 PM CST
Civil Twilight 6:27 AM CST 6:51 PM CST
Nautical Twilight 5:58 AM CST 7:21 PM CST
Astronomical Twilight 5:28 AM CST 7:50 PM CST
Moon 12:55 AM CST (3/4) 11:18 AM CST (3/4)
Length of Visible Light 12h 23m
Length of Day
11h 33m
Waning Gibbous, 52% of the Moon is Illuminated
Mar 4
Waning Gibbous
Mar 4
Last Quarter
Mar 11
New
Mar 19
First Quarter
Mar 27
Full

Hourly Weather History & Observations

Time (CST) Temp. Windchill Dew Point Humidity Pressure Visibility Wind Dir Wind Speed Gust Speed Precip Events Conditions
12:15 AM 59.0 °F - 39.2 °F 48% 29.64 in 10.0 mi South 19.6 mph 27.6 mph N/A   Clear
12:35 AM 59.0 °F - 39.2 °F 48% 29.63 in 10.0 mi South 17.3 mph 25.3 mph N/A   Clear
12:55 AM 59.0 °F - 39.2 °F 48% 29.62 in 10.0 mi South 17.3 mph 25.3 mph N/A   Clear
1:15 AM 59.0 °F - 41.0 °F 51% 29.62 in 10.0 mi South 15.0 mph 26.5 mph N/A   Clear
1:35 AM 59.0 °F - 41.0 °F 51% 29.61 in 10.0 mi South 13.8 mph 21.9 mph N/A   Clear
2:15 AM 60.8 °F - 41.0 °F 48% 29.60 in 10.0 mi South 17.3 mph 24.2 mph N/A   Clear
2:35 AM 60.8 °F - 41.0 °F 48% 29.59 in 10.0 mi South 18.4 mph 25.3 mph N/A   Clear
2:55 AM 60.8 °F - 41.0 °F 48% 29.58 in 10.0 mi South 18.4 mph 26.5 mph N/A   Clear
3:35 AM 59.0 °F - 39.2 °F 48% 29.57 in 10.0 mi South 16.1 mph 23.0 mph N/A   Clear
3:55 AM 59.0 °F - 39.2 °F 48% 29.57 in 10.0 mi South 16.1 mph 23.0 mph N/A   Clear
4:15 AM 59.0 °F - 39.2 °F 48% 29.55 in 10.0 mi South 16.1 mph 20.7 mph N/A   Clear
4:35 AM 59.0 °F - 37.4 °F 45% 29.55 in 10.0 mi South 13.8 mph 21.9 mph N/A   Clear
5:15 AM 59.0 °F - 37.4 °F 45% 29.55 in 10.0 mi South 12.7 mph 26.5 mph N/A   Clear
5:35 AM 60.8 °F - 37.4 °F 42% 29.55 in 10.0 mi South 10.4 mph - N/A   Clear
5:55 AM 59.0 °F - 37.4 °F 45% 29.55 in 10.0 mi South 10.4 mph 17.3 mph N/A   Clear
6:15 AM 59.0 °F - 37.4 °F 45% 29.57 in 10.0 mi South 10.4 mph - N/A   Clear
6:35 AM 59.0 °F - 39.2 °F 48% 29.56 in 10.0 mi South 13.8 mph 18.4 mph N/A   Clear
6:55 AM 59.0 °F - 41.0 °F 51% 29.57 in 10.0 mi South 12.7 mph 20.7 mph N/A   Clear
7:15 AM 57.2 °F - 41.0 °F 55% 29.57 in 10.0 mi SSW 12.7 mph - N/A   Clear
7:35 AM 57.2 °F - 41.0 °F 55% 29.57 in 10.0 mi South 10.4 mph 17.3 mph N/A   Clear
7:55 AM 57.2 °F - 41.0 °F 55% 29.58 in 10.0 mi South 10.4 mph 16.1 mph N/A   Clear
8:15 AM 59.0 °F - 42.8 °F 55% 29.58 in 10.0 mi South 10.4 mph - N/A   Clear
8:35 AM 59.0 °F - 41.0 °F 51% 29.58 in 10.0 mi South 9.2 mph - N/A   Clear
8:55 AM 60.8 °F - 42.8 °F 52% 29.59 in 10.0 mi SSW 12.7 mph - N/A   Clear
9:15 AM 62.6 °F - 41.0 °F 45% 29.59 in 10.0 mi SSW 11.5 mph - N/A   Clear
9:35 AM 62.6 °F - 41.0 °F 45% 29.59 in 10.0 mi SW 10.4 mph - N/A   Clear
9:55 AM 64.4 °F - 37.4 °F 37% 29.59 in 10.0 mi WSW 9.2 mph - N/A   Clear
10:15 AM 64.4 °F - 37.4 °F 37% 29.60 in 10.0 mi WSW 8.1 mph - N/A   Clear
10:35 AM 64.4 °F - 37.4 °F 37% 29.60 in 10.0 mi West 9.2 mph - N/A   Clear
10:55 AM 64.4 °F - 37.4 °F 37% 29.60 in 10.0 mi West 9.2 mph - N/A   Clear
11:15 AM 64.4 °F - 41.0 °F 42% 29.60 in 10.0 mi West 12.7 mph - N/A   Clear
11:35 AM 66.2 °F - 41.0 °F 40% 29.61 in 10.0 mi WNW 6.9 mph - N/A   Clear
11:55 AM 66.2 °F - 41.0 °F 40% 29.61 in 10.0 mi NNW 11.5 mph - N/A   Clear
12:15 PM 64.4 °F - 42.8 °F 45% 29.62 in 10.0 mi WNW 6.9 mph - N/A   Clear
12:35 PM 66.2 °F - 42.8 °F 43% 29.62 in 10.0 mi West 9.2 mph - N/A   Clear
12:55 PM 66.2 °F - 42.8 °F 43% 29.62 in 10.0 mi NNW 4.6 mph - N/A   Clear
1:15 PM 68.0 °F - 42.8 °F 40% 29.61 in 10.0 mi WNW 5.8 mph - N/A   Clear
1:35 PM 68.0 °F - 42.8 °F 40% 29.61 in 10.0 mi West 8.1 mph - N/A   Clear
1:55 PM 71.6 °F - 44.6 °F 38% 29.61 in 10.0 mi West 3.5 mph - N/A   Clear
2:15 PM 71.6 °F - 44.6 °F 38% 29.61 in 10.0 mi WNW 10.4 mph 16.1 mph N/A   Clear
2:35 PM 71.6 °F - 44.6 °F 38% 29.62 in 10.0 mi WNW 6.9 mph - N/A   Clear
2:55 PM 71.6 °F - 44.6 °F 38% 29.62 in 10.0 mi NW 9.2 mph - N/A   Clear
3:15 PM 71.6 °F - 44.6 °F 38% 29.62 in 10.0 mi WNW 6.9 mph - N/A   Clear
3:35 PM 73.4 °F - 44.6 °F 36% 29.62 in 10.0 mi WNW 9.2 mph - N/A   Clear
3:55 PM 71.6 °F - 44.6 °F 38% 29.63 in 10.0 mi NW 9.2 mph - N/A   Clear
4:15 PM 71.6 °F - 44.6 °F 38% 29.64 in 10.0 mi NW 12.7 mph - N/A   Clear
4:35 PM 71.6 °F - 44.6 °F 38% 29.65 in 10.0 mi WNW 11.5 mph - N/A   Clear
4:55 PM 71.6 °F - 44.6 °F 38% 29.65 in 10.0 mi NW 13.8 mph - N/A   Clear
5:35 PM 71.6 °F - 46.4 °F 41% 29.67 in 10.0 mi NNW 15.0 mph 19.6 mph N/A   Clear
5:55 PM 64.4 °F - 46.4 °F 52% 29.68 in 10.0 mi North 15.0 mph - N/A   Clear
6:15 PM 62.6 °F - 46.4 °F 55% 29.70 in 10.0 mi North 13.8 mph - N/A   Clear
6:35 PM 60.8 °F - 46.4 °F 59% 29.73 in 10.0 mi NNW 10.4 mph - N/A   Clear
6:55 PM 59.0 °F - 46.4 °F 63% 29.74 in 10.0 mi NNW 13.8 mph - N/A   Clear
7:15 PM 57.2 °F - 46.4 °F 67% 29.76 in 10.0 mi NNW 20.7 mph - N/A   Clear
7:35 PM 55.4 °F - 46.4 °F 72% 29.78 in 10.0 mi NNW 20.7 mph 25.3 mph N/A   Clear
7:55 PM 53.6 °F - 44.6 °F 72% 29.78 in 10.0 mi NNW 21.9 mph 31.1 mph N/A   Clear
8:15 PM 51.8 °F - 44.6 °F 76% 29.80 in 10.0 mi NNW 17.3 mph 27.6 mph N/A   Clear
8:35 PM 51.8 °F - 44.6 °F 76% 29.81 in 10.0 mi NNW 24.2 mph 28.8 mph N/A   Clear
8:55 PM 48.2 °F - 42.8 °F 82% 29.82 in 10.0 mi North 21.9 mph 31.1 mph N/A   Clear
9:15 PM 48.2 °F - 42.8 °F 82% 29.85 in 10.0 mi NNW 27.6 mph 31.1 mph N/A   Clear
9:35 PM 48.2 °F - 42.8 °F 82% 29.87 in 10.0 mi North 21.9 mph 36.8 mph N/A   Clear
9:55 PM 46.4 °F 37.9 °F 41.0 °F 81% 29.90 in 10.0 mi North 25.3 mph 36.8 mph N/A   Clear
10:15 PM 46.4 °F 37.2 °F 41.0 °F 81% 29.91 in 10.0 mi North 29.9 mph 39.1 mph N/A   Clear
10:35 PM 46.4 °F 37.9 °F 41.0 °F 81% 29.96 in 10.0 mi NNW 25.3 mph 32.2 mph N/A   Clear
10:55 PM 46.4 °F 38.3 °F 39.2 °F 76% 29.97 in 10.0 mi North 23.0 mph 27.6 mph N/A   Clear
11:15 PM 46.4 °F 37.9 °F 39.2 °F 76% 29.98 in 10.0 mi North 25.3 mph 32.2 mph N/A   Scattered Clouds
11:35 PM 48.2 °F - 37.4 °F 66% 30.00 in 10.0 mi North 19.6 mph 36.8 mph N/A   Mostly Cloudy
11:55 PM 48.2 °F - 37.4 °F 66% 30.00 in 10.0 mi North 21.9 mph 36.8 mph N/A   Scattered Clouds